Weather History for Berlin, NH

Change the Weather History Date:

Wednesday, July 3, 2013

  Actual Average Record
Temperature  
Mean Temperature 72 °F -  
Max Temperature 86 °F 74 °F 91 °F (2002)
Min Temperature 59 °F 47 °F 36 °F (2001)
Cooling Degree Days 6    
Growing Degree Days 22 (Base 50)    
Moisture  
Dew Point 63 °F    
Average Humidity 86    
Maximum Humidity 100    
Minimum Humidity 61    
Precipitation  
Precipitation 0.01 in - - ()
Sea Level Pressure  
Sea Level Pressure 30.18 in    
Wind  
Wind Speed 1 mph (ENE)    
Max Wind Speed 10 mph    
Max Gust Speed -    
Visibility 7 miles    
Events Rain    
Averages and records for this station are not official NWS values.
T = Trace of Precipitation, MM = Missing Value Source: NWS Daily Summary

Daily Weather History Graph

Daily Weather History Graph

Search for Another Location

Airport:

Trip Planner

Search our weather history database for the weather conditions in past years. The results will help you decide how hot, cold, wet, or windy it might be!

Date:

Astronomy

Jul. 03, 2013 Rise Set
Actual Time 5:04 AM EDT 8:32 PM EDT
Civil Twilight 4:28 AM EDT 9:09 PM EDT
Nautical Twilight 3:40 AM EDT 9:57 PM EDT
Astronomical Twilight 2:38 AM EDT 10:58 PM EDT
Moon 1:46 AM EDT (7/3) 4:36 PM EDT (7/3)
Length of Visible Light 16h 41m
Length of Day
15h 28m
Waning Crescent, 18% of the Moon is Illuminated
Jul 3
Waning Crescent
Jul 8
New
Jul 15
First Quarter
Jul 22
Full
Jul 29
Last Quarter

Hourly Weather History & Observations

Time (EDT) Temp. Heat Index Dew Point Humidity Pressure Visibility Wind Dir Wind Speed Gust Speed Precip Events Conditions
12:52 AM 61.0 °F - 59.0 °F 93% 30.19 in 5.0 mi North 3.5 mph - N/A   Overcast
1:52 AM 60.1 °F - 57.9 °F 93% 30.18 in 6.0 mi Calm Calm - N/A   Overcast
2:52 AM 60.1 °F - 57.9 °F 93% 30.18 in 6.0 mi Calm Calm - N/A   Overcast
3:52 AM 59.0 °F - 57.9 °F 96% 30.17 in 4.0 mi Calm Calm - N/A   Mostly Cloudy
4:04 AM 59.0 °F - 57.2 °F 94% 30.16 in 4.0 mi Calm Calm - N/A   Mostly Cloudy
4:20 AM 59.0 °F - 57.2 °F 94% 30.16 in 4.0 mi Calm Calm - N/A   Scattered Clouds
4:38 AM 60.8 °F - 57.2 °F 88% 30.17 in 4.0 mi Calm Calm - N/A   Mostly Cloudy
4:49 AM 59.0 °F - 57.2 °F 94% 30.17 in 4.0 mi Calm Calm - N/A   Mostly Cloudy
4:52 AM 59.0 °F - 57.9 °F 96% 30.17 in 4.0 mi Calm Calm - N/A   Mostly Cloudy
5:22 AM 59.0 °F - 57.2 °F 94% 30.17 in 2.5 mi Calm Calm - N/A   Overcast
5:32 AM 59.0 °F - 57.2 °F 94% 30.18 in 3.0 mi Calm Calm - N/A   Overcast
5:41 AM 60.8 °F - 57.2 °F 88% 30.18 in 2.5 mi Calm Calm - N/A   Overcast
5:49 AM 60.8 °F - 57.2 °F 88% 30.18 in 3.0 mi Calm Calm - N/A   Overcast
5:52 AM 60.1 °F - 57.9 °F 93% 30.18 in 3.0 mi Calm Calm - N/A   Overcast
6:49 AM 60.8 °F - 59.0 °F 94% 30.19 in 5.0 mi Calm Calm - N/A   Overcast
6:52 AM 61.0 °F - 59.0 °F 93% 30.19 in 5.0 mi Calm Calm - N/A   Overcast
7:06 AM 62.6 °F - 59.0 °F 88% 30.19 in 5.0 mi Calm Calm - N/A   Overcast
7:52 AM 63.0 °F - 59.0 °F 87% 30.20 in 8.0 mi Calm Calm - N/A   Overcast
8:21 AM 64.4 °F - 60.8 °F 88% 30.20 in 7.0 mi Calm Calm - N/A   Overcast
8:52 AM 64.0 °F - 60.1 °F 87% 30.21 in 10.0 mi Calm Calm - N/A   Overcast
9:17 AM 66.2 °F - 62.6 °F 88% 30.20 in 9.0 mi Calm Calm - N/A   Overcast
9:33 AM 68.0 °F - 62.6 °F 83% 30.20 in 10.0 mi Calm Calm - N/A   Overcast
9:52 AM 69.1 °F - 64.0 °F 84% 30.20 in 10.0 mi Calm Calm - N/A   Overcast
10:15 AM 69.8 °F - 64.4 °F 83% 30.20 in 10.0 mi Calm Calm - N/A   Overcast
10:24 AM 71.6 °F - 64.4 °F 78% 30.20 in 10.0 mi Calm Calm - N/A   Overcast
10:35 AM 73.4 °F - 66.2 °F 78% 30.20 in 10.0 mi Calm Calm - N/A   Mostly Cloudy
10:42 AM 73.4 °F - 66.2 °F 78% 30.20 in 10.0 mi Calm Calm - N/A   Mostly Cloudy
10:52 AM 73.9 °F - 66.9 °F 79% 30.19 in 10.0 mi SSE 4.6 mph - N/A   Mostly Cloudy
11:35 AM 77.0 °F - 69.8 °F 78% 30.19 in 10.0 mi SSE 3.5 mph - N/A   Mostly Cloudy
11:52 AM 78.1 °F - 69.1 °F 74% 30.18 in 10.0 mi Calm Calm - N/A   Overcast
12:52 PM 79.0 °F - 69.1 °F 72% 30.17 in 10.0 mi SE 3.5 mph - N/A   Mostly Cloudy
1:25 PM 82.4 °F 86.3 °F 69.8 °F 66% 30.17 in 10.0 mi Calm Calm - N/A   Overcast
1:52 PM 84.9 °F 89.4 °F 70.0 °F 61% 30.14 in 10.0 mi Variable 4.6 mph - N/A   Scattered Clouds
2:52 PM 81.0 °F 84.9 °F 71.1 °F 72% 30.15 in 10.0 mi North 10.4 mph - N/A   Overcast
3:52 PM 75.0 °F - 71.1 °F 87% 30.15 in 7.0 mi NNW 3.5 mph - 0.01 in Rain Light Rain
4:52 PM 75.9 °F - 72.0 °F 87% 30.15 in 10.0 mi Calm Calm - 0.00 in   Partly Cloudy
5:52 PM 80.1 °F 83.6 °F 71.1 °F 74% 30.13 in 10.0 mi Calm Calm - N/A   Clear
6:52 PM 81.0 °F 84.4 °F 70.0 °F 69% 30.13 in 10.0 mi Variable 3.5 mph - N/A   Partly Cloudy
7:52 PM 78.1 °F - 70.0 °F 76% 30.14 in 10.0 mi Calm Calm - N/A   Clear
8:52 PM 71.1 °F - 70.0 °F 96% 30.16 in 9.0 mi Calm Calm - N/A   Clear
9:52 PM 69.1 °F - 68.0 °F 96% 30.18 in 9.0 mi Calm Calm - N/A   Clear
10:52 PM 68.0 °F - 66.0 °F 93% 30.17 in 5.0 mi Calm Calm - N/A   Clear
11:05 PM 68.0 °F - 66.2 °F 94% 30.18 in 7.0 mi Calm Calm - N/A   Scattered Clouds
11:24 PM 66.2 °F - 64.4 °F 94% 30.18 in 8.0 mi Calm Calm - N/A   Mostly Cloudy
11:34 PM 64.4 °F - 64.4 °F 100% 30.19 in 9.0 mi Calm Calm - N/A   Overcast
11:52 PM 68.0 °F - 66.0 °F 93% 30.17 in 9.0 mi Calm Calm - N/A   Overcast